This is the latest recevied weather packets stored in our database for station/object WA5TET. If no packets are shown the sender has not sent any weather packets the latest 10 day(s).
| Time | Temp. | Humidity | Pressure | Rain* | Wind** | Luminosity | Snow |
|---|---|---|---|---|---|---|---|
| 1787768368 | 36.11° C | 40% | 1013.3 hPa | 0 mm | - | 203 W/m² | - |
| 1787768064 | 36.11° C | 38% | 1013.5 hPa | 0 mm | - | 220 W/m² | - |
| 1787767763 | 36.11° C | 39% | 1013.5 hPa | 0 mm | - | 254 W/m² | - |
| 1787767459 | 36.11° C | 40% | 1013.6 hPa | 0 mm | - | 305 W/m² | - |
| 1787767157 | 36.67° C | 39% | 1013.7 hPa | 0 mm | - | 326 W/m² | - |
| 1787766855 | 36.67° C | 38% | 1013.6 hPa | 0 mm | - | 354 W/m² | - |
| 1787766550 | 36.67° C | 39% | 1013.6 hPa | 0 mm | - | 455 W/m² | - |
| 1787766250 | 36.67° C | 39% | 1013.5 hPa | 0 mm | - | 418 W/m² | - |
| 1787765945 | 36.67° C | 38% | 1013.6 hPa | 0 mm | - | 349 W/m² | - |
| 1787765641 | 36.67° C | 38% | 1013.4 hPa | 0 mm | - | 350 W/m² | - |
| 1787765337 | 36.67° C | 38% | 1013.5 hPa | 0 mm | - | 365 W/m² | - |
| 1787765035 | 36.67° C | 37% | 1013.4 hPa | 0 mm | - | 418 W/m² | - |
| 1787764731 | 36.67° C | 38% | 1013.6 hPa | 0 mm | - | 386 W/m² | - |
| 1787764426 | 37.22° C | 37% | 1013.7 hPa | 0 mm | - | 413 W/m² | - |
| 1787764122 | 36.67° C | 38% | 1013.5 hPa | 0 mm | - | 404 W/m² | - |
| 1787763818 | 37.78° C | 36% | 1013.8 hPa | 0 mm | - | 804 W/m² | - |
| 1787763513 | 38.33° C | 36% | 1013.7 hPa | 0 mm | - | 517 W/m² | - |
| 1787763212 | 37.78° C | 38% | 1013.8 hPa | 0 mm | - | 903 W/m² | - |
| 1787762907 | 37.22° C | 37% | 1013.6 hPa | 0 mm | - | 1066 W/m² | - |
| 1787762603 | 36.67° C | 39% | 1013.8 hPa | 0 mm | - | 867 W/m² | - |
| 1787762299 | 36.11° C | 39% | 1013.7 hPa | 0 mm | - | 1018 W/m² | - |
| 1787761994 | 36.11° C | 39% | 1013.8 hPa | 0 mm | - | 475 W/m² | - |
| 1787761689 | 36.11° C | 39% | 1013.8 hPa | 0 mm | - | 566 W/m² | - |
| 1787761384 | 36.11° C | 38% | 1013.9 hPa | 0 mm | - | 529 W/m² | - |
| 1787761083 | 35.56° C | 39% | 1013.9 hPa | 0 mm | - | 491 W/m² | - |
* Rain latest hour (hover to see other rain measurements)
** Current wind speed in m/s (hover to see current wind gust speed)